09:34
Airports
History
Links
Donate
Help keep this website running!
PayPal
Bitcoin
This page is community maintained. The information is intended for PC simulator navigation or reference.
Always use approved charts for navigation.
ETIC
GRAFENWOHR AAF
GRAFENWOHR AAF (ETIC)
Grafenwöhr, Bayern, Germany (92655)
(C)
Lat/Lng:49° 41' 55.28" N / 11° 56' 24.64" E
49.698688 / 11.940177
Elevation:1363'ft / 415mMSL
ID / ICAO:ETIC
Runways:1
Longest:14-32
Asphalt 998m / 3,274ft
Controlled:Yes
METAR08:56 GMT 2017-10-24
Altimeter: 30.29
Visibility: 6.2 statute miles
Wind: 4 knots (from 240°)
Temp: 10°c / 50°f
Humidity: 87.4%

METAR: ETIC 240856Z AUTO 24004KT 9999 OVC022 10/08 A3029 RMK AO2 SLP266 T01010080 52010 $

(Powered by phpweather)
Airport Radio Frequencies
Tower: 122.1
Approach: 138.25
Nearby VORs <50NM
Nearby NDBs
Runway 14 / 32
Dimensions:997.8 x 22.3m 3274' x 73'ft
Surface:Asphalt
Edge Lights:High intensity
Runway 14 [A]Runway 32 [B]
Heading:143°TH 323°TH
Lat:
Lng:
49° 42' 8.35"N
11° 56' 9.69"E
49° 41' 42.2"N
11° 56' 39.58"E
ALS:MALSMALS
TDZ:Yes, lighted
User Notes and Comments
49° 41' 55.28" N / 11° 56' 24.64" E
Distance To
Airport ID:
Nearby Airports
(U) Weiden 8.0 NM
EDQW E 99°
(U) VILSECK AAF 8.9 NM
ETOI WSW 239°
(U) Rosenthal Field Ploessen 13.2 NM
EDQP NNW 329°
(U) Schmidgaden 19.8 NM
EDPQ SSE 159°
(C) Bayreuth 23.9 NM
EDQD ( WX ) NW 325°
(C) HOHENFELS AAF 33.5 NM
ETIH ( WX ) S 188°
(C) Tachov 34.9 NM
LKTD ENE 78°
VFR Chart
Flight Planning at SkyVector.com